Location: Fouch�court
(47.7889°N, 5.9955°E)
Time: 01:27:02
(UTC+00:00)

Daily predictions for brighter satellites

Satellite Brightness Start Highest point End
(mag) Time Altitude Azimuth Time Altitude Azimuth Time Altitude Azimuth
Cosmos 1464 Rocket 3.9 00:08:47 60° S 00:10:00 81° E 00:16:14 10° N
Cosmos 2333 4.3 00:04:19 10° NW 00:10:02 59° WSW 00:10:14 59° WSW
Cosmos 2219 Rocket 2.0 00:04:54 10° NNW 00:10:37 82° WSW 00:11:13 71° S
Cosmos 1782 Rocket 3.7 00:12:54 71° N 00:12:54 71° N 00:16:49 10° N
Lacrosse 4 Rocket 1.7 00:13:01 65° N 00:13:01 65° N 00:16:45 10° NNE
Cosmos 1354 Rocket 3.9 00:16:38 70° SE 00:16:57 72° ESE 00:22:17 10° NNE
Cosmos 2322 Rocket 4.1 00:14:51 10° WNW 00:17:43 15° W 00:17:43 15° W
Cosmos 968 Rocket 3.5 00:19:13 63° W 00:19:39 67° WNW 00:24:47 10° NNE
SL-4 R/B 3.9 00:22:19 19° ENE 00:22:19 19° ENE 00:23:30 10° ENE
Landsat 4 4.5 00:17:07 10° N 00:20:07 49° NNW 00:20:07 49° NNW
Cosmos 1908 Rocket 4.4 00:21:10 40° WNW 00:21:10 40° WNW 00:25:08 10° N
SL-16 R/B 4.3 00:17:12 10° N 00:21:45 24° NE 00:26:16 10° E
COSMOS 2428 2.6 00:23:01 10° NNW 00:28:43 67° WSW 00:29:11 64° SW
SL-16 R/B 3.3 00:28:37 25° SE 00:32:06 49° ENE 00:38:06 10° N
Nadezhda 4 Rocket 3.9 00:27:27 10° N 00:33:48 87° W 00:35:18 55° S
BREEZE-M TANK 4.4 00:36:08 18° E 00:36:08 18° E 00:37:24 10° E
Cosmos 2360 Rocket 3.7 00:29:49 10° NW 00:33:24 21° W 00:33:24 21° W
CENTAUR R/B 4.1 00:28:18 10° W 00:34:07 34° NNW 00:40:52 10° NE
CZ-2D R/B 3.3 00:31:42 10° NNE 00:36:39 33° E 00:38:05 29° SE
Cosmos 2034 Rocket 3.9 00:35:41 57° S 00:37:07 89° W 00:43:28 10° N
USA 267 4.3 00:32:35 10° E 00:38:44 45° NNE 00:44:53 10° NW
Okean 2 Rocket 3.0 00:41:46 77° E 00:41:46 77° E 00:46:15 10° NNE
GEOS 3 Rocket 3.6 00:36:36 10° NE 00:42:02 71° SE 00:42:46 62° S
Meteor 2-9 Rocket 4.3 00:41:29 52° WSW 00:42:23 59° WNW 00:48:00 10° N
ADEOS II 4.2 00:41:35 10° NE 00:44:53 17° E 00:47:27 12° ESE
Cosmos 1975 4.0 00:45:31 33° WNW 00:45:31 33° WNW 00:48:47 10° N
Cosmos 1092 Rocket 4.0 00:39:38 10° N 00:45:55 75° E 00:48:01 44° SSE
Cosmos 1975 Rocket 4.0 00:41:55 10° NNW 00:45:36 38° WNW 00:45:36 38° WNW
Cosmos 2297 Rocket 3.0 00:45:36 35° SE 00:46:39 39° ESE 00:51:51 10° NE
Cosmos 2219 3.7 00:45:50 41° SE 00:46:48 45° ESE 00:52:07 10° NE
Cosmos 1980 3.7 00:42:06 10° NNW 00:47:49 78° ENE 00:49:51 41° SE
PSLV R/B 4.4 00:43:39 10° N 00:48:02 43° WNW 00:48:26 42° W
Cosmos 2333 Rocket 2.8 00:43:00 10° NW 00:48:11 40° WSW 00:48:11 40° WSW
Sich 1 Rocket 3.8 00:48:43 59° WNW 00:48:43 59° WNW 00:52:59 10° N
Helios 1B rocket 2.8 00:45:02 10° N 00:48:49 54° WNW 00:48:49 54° WNW
Cosmos 1777 Rocket 4.3 00:49:00 50° SE 00:49:46 54° ESE 00:54:57 10° NNE
Meteor 1-29 3.8 00:49:34 10° N 00:52:12 48° N 00:52:12 48° N
UNK 4.3 00:52:22 41° ESE 00:53:38 55° ENE 00:58:14 10° N
Cosmos 44 Rocket 3.3 00:50:20 10° NW 00:55:08 63° WSW 00:55:08 63° WSW
Cosmos 1300 Rocket 3.4 00:57:53 79° WNW 00:57:53 79° WNW 01:02:11 10° N
Cosmos 2237 Rocket 2.1 00:52:10 10° NNW 00:57:52 85° ENE 00:59:51 43° SSE
DELTA 2 DEB (DPAF) 4.0 01:00:27 71° SE 01:00:55 82° ENE 01:05:22 10° NNW
Okean 1 Rocket 3.9 01:01:02 37° ESE 01:01:42 40° E 01:05:47 10° NNE
Cosmos 1626 4.4 00:59:51 10° NNE 01:02:41 20° ENE 01:04:26 15° ESE
CZ-4C R/B 3.6 01:04:19 53° ENE 01:04:19 53° ENE 01:07:36 10° N
Spot 1 3.9 01:06:48 76° W 01:06:48 76° W 01:10:50 10° NNW
Iridium 51 4.3 01:04:17 10° N 01:08:42 81° W 01:08:42 81° W
Cosmos 2151 Rocket 3.4 01:12:29 70° WSW 01:12:46 74° W 01:17:11 10° N
Meteor 1-12 Rocket 4.4 01:11:28 48° SW 01:13:05 69° WNW 01:19:07 10° N
Timation 2 Rocket 3.9 01:14:34 46° SW 01:16:34 80° WNW 01:22:39 10° NNE
Cosmos 1707 4.0 01:14:18 10° NNW 01:17:05 31° WNW 01:17:05 31° WNW
In-Cosmos 22 4.2 01:12:29 10° NNW 01:18:03 64° W 01:19:15 50° SSW
Meteor 1-15 Rocket 4.2 01:22:53 44° S 01:24:48 80° E 01:30:26 10° NNE
Cosmos 1805 3.5 01:24:26 54° ESE 01:24:49 58° E 01:28:40 10° NNE
SJ 16-02 2.6 01:25:10 27° SE 01:26:24 32° ESE 01:30:21 10° NE
DNEPR-1 R/B 4.1 01:21:05 10° NW 01:27:04 81° NE 01:31:05 15° SE
ERBS 2.9 01:23:59 10° NW 01:27:14 54° NNE 01:30:29 10° ESE
SAR-Lupe-3 4.4 01:25:31 10° NNE 01:29:06 87° ENE 01:29:06 87° ENE
Cosmos 1538 Rocket 4.0 01:29:43 10° NNW 01:34:48 57° WSW 01:35:51 48° SSW
Cosmos 2227 Rocket 2.2 01:33:34 42° SSW 01:35:32 77° ESE 01:41:13 10° NNE
Cosmos 1025 Rocket 4.1 01:32:42 10° NNW 01:36:08 30° W 01:36:08 30° W
MOZ.5/SAFIR/RUBIN 5/SL-8 4.3 01:36:59 41° WSW 01:37:19 42° W 01:41:51 10° NNW
Resurs 1-4 Rocket 2.0 01:32:21 10° NNE 01:37:39 79° WNW 01:39:24 43° SSW
Cosmos 1674 2.7 01:36:13 10° NNW 01:39:47 61° W 01:39:47 61° W
Cosmos 1892 Rocket 4.3 01:39:01 10° N 01:43:24 53° ENE 01:46:08 22° SSE
Cosmos 1733 3.4 01:42:54 52° SSE 01:43:36 66° E 01:47:25 10° NNE
ATLAS 3B R/B 4.2 01:41:40 10° W 01:47:20 29° NNW 01:53:05 10° NNE
Cosmos 2279 Rocket 3.9 01:44:46 33° S 01:47:47 89° E 01:54:02 10° N
USA 215 3.4 01:41:54 10° ENE 01:48:23 60° SE 01:51:29 32° SSW
Cosmos 1461 4.4 01:47:03 24° SSE 01:48:23 29° ESE 01:52:17 10° NE
Cosmos 2026 Rocket 4.2 01:43:04 10° NNW 01:48:54 51° W 01:51:08 35° SW
COBE Rocket 3.7 01:47:33 32° SSE 01:49:45 87° E 01:54:25 10° NNW
Lacrosse 4 Rocket 3.9 01:49:34 10° WNW 01:51:55 14° NW 01:54:15 10° N
Cosmos 1634 Rocket 4.2 01:50:26 34° SW 01:53:01 55° WNW 01:59:09 10° N
FALCON 9 DEB 4.1 01:50:06 10° WNW 01:53:30 48° NNE 01:56:53 10° E
Cosmos 2219 Rocket 4.1 01:51:01 10° WNW 01:52:54 13° W 01:52:54 13° W
Cosmos 2344 4.5 01:46:00 10° NW 01:55:32 62° WSW 02:08:45 10° SSE
SL-24 R/B 4.3 01:53:41 32° S 01:55:57 90° SW 02:00:58 10° N
Cosmos 2082 3.9 01:53:29 32° S 01:56:06 66° ESE 02:01:41 10° NNE
Cosmos 1340 Rocket 4.4 01:54:19 17° SE 01:56:41 29° E 02:00:09 10° NNE
SL-4 R/B 1.4 01:58:02 24° WNW 01:59:58 90° NNE 02:03:23 10° ESE
Cosmos 2112 Rocket 4.2 01:55:06 10° NNW 02:00:22 73° ENE 02:05:33 10° SSE
Meteor 1-24 Rocket 3.5 01:59:53 10° NNW 02:05:24 81° W 02:08:55 22° S
SL-16 R/B 2.1 02:00:47 10° NNW 02:06:30 76° WSW 02:12:09 10° SSE
CBERS-1 4.0 02:01:20 10° NNE 02:06:30 87° ESE 02:09:09 29° SSW
Cosmos 1726 4.4 02:04:32 10° SE 02:07:17 20° E 02:10:02 10° NE
Meteor 2-5 Rocket 3.8 02:03:31 10° NNW 02:09:05 59° W 02:11:59 28° SSW
ARIANE 5 R/B 3.2 02:08:51 10° NNE 02:13:57 50° E 02:18:02 16° S
H-2A R/B 4.1 02:11:07 10° ESE 02:14:33 26° ENE 02:18:00 10° N
Cosmos 1898 Rocket 3.9 02:11:41 23° S 02:14:51 60° ESE 02:20:00 10° NNE
NPP 4.1 02:10:38 10° N 02:15:47 48° WNW 02:18:22 27° SW
SL-16 R/B 3.3 02:13:43 27° SW 02:15:53 33° W 02:21:30 10° NNW
IDEFIX/ARIANE 42P 3.9 02:11:59 10° NNE 02:16:46 36° E 02:21:31 10° SSE
CZ-2D R/B 2.9 02:11:40 10° N 02:16:46 41° WNW 02:19:24 25° WSW
Cosmos 1680 Rocket 3.4 02:12:55 10° NNW 02:18:09 71° WSW 02:22:57 12° S
NOSS 3-1 (C) 3.8 02:17:24 22° S 02:20:43 50° ESE 02:26:45 10° NE
USA 267 3.3 02:14:50 10° ESE 02:21:23 85° NE 02:27:58 10° NW
AQUA 4.4 02:17:47 10° N 02:22:19 45° WNW 02:24:26 27° WSW
Cosmos 1544 Rocket 4.0 02:20:01 19° S 02:23:07 61° E 02:27:32 10° NNE
ADEOS II 2.1 02:19:54 10° NNE 02:25:11 76° WNW 02:28:23 24° SSW
Cosmos 1607 4.0 02:18:54 10° NW 02:25:15 61° WSW 02:31:35 10° SSE
Cosmos 990 Rocket 4.0 02:23:20 24° SSW 02:26:30 80° ESE 02:31:42 10° NNE
Cosmos 1766 4.2 02:26:32 28° WSW 02:27:35 32° WNW 02:31:09 10° N
IRS-1D 3.7 02:24:02 10° N 02:28:59 60° WNW 02:31:54 25° SW
Cosmos 2263 Rocket 3.6 02:24:10 10° SSE 02:29:01 32° ESE 02:33:53 10° NE
Meteor 1-22 Rocket 4.2 02:27:12 26° SSW 02:30:10 61° WNW 02:35:27 10° N
Cosmos 2297 Rocket 3.0 02:27:24 21° WSW 02:30:41 40° NW 02:36:00 10° NNE
Cosmos 2219 4.2 02:27:45 19° WSW 02:31:04 35° NW 02:36:13 10° NNE
Okean 1-7 Rocket 3.5 02:27:36 10° NNW 02:31:59 66° W 02:35:04 19° S
IRS-1C 4.1 02:29:24 10° NNE 02:34:47 86° WNW 02:38:42 19° SSW
Cosmos 1626 3.0 02:34:41 10° NNW 02:38:00 31° W 02:38:57 27° WSW
Cosmos 2266 Rocket 4.0 02:32:36 10° NNW 02:38:56 66° W 02:45:02 10° S
Meteor 1-28 Rocket 3.1 02:36:22 18° S 02:39:07 69° WSW 02:42:55 10° NNW
Cosmos 1655 Rocket 4.3 02:33:42 10° NNW 02:39:43 50° W 02:44:28 16° SSW
Cosmos 2237 Rocket 3.7 02:37:49 10° WNW 02:41:09 16° W 02:41:37 16° WSW
Cosmos 1602 Rocket 4.2 02:37:03 10° N 02:41:23 55° ENE 02:45:39 10° SSE
CZ-4B R/B 4.1 02:37:45 10° N 02:42:12 39° WNW 02:44:51 21° WSW
Cosmos 1470 2.8 02:41:43 23° SSW 02:44:02 68° WNW 02:48:01 10° N
Cosmos 1603 4.1 02:40:17 10° NNW 02:46:02 67° ENE 02:51:43 10° SE
SL-08 R/B 3.5 02:43:55 12° S 02:48:28 55° W 02:53:22 10° NNW
USA 229 DEB 3.8 02:48:34 16° SSW 02:53:49 73° SE 03:00:41 10° NE
USA 229 3.8 02:48:39 16° SSW 02:53:54 72° SE 03:00:44 10° NE
Cosmos 2098 Rocket 3.9 02:49:24 10° NNW 02:53:57 47° W 02:59:34 10° SSW
OPS 8737 4.3 02:57:00 21° SW 02:59:13 76° NW 03:02:13 10° NE
ERBS 3.5 03:00:46 10° W 03:03:33 20° SW 03:05:45 10° S
Meteor 2-14 Rocket 4.4 02:57:42 10° NNW 03:03:48 80° W 03:09:51 10° S
NOSS 2-3 (C) 4.2 03:01:07 14° SSW 03:04:43 54° ESE 03:09:35 10° NE
NOSS 3-1 (A) 3.6 03:00:07 13° SSW 03:04:57 62° ESE 03:11:13 10° NE
SJ 16-02 2.5 03:02:10 16° WSW 03:04:59 30° WNW 03:08:54 10° N
CSL-04 DEB 4.2 03:06:02 10° S 03:09:56 69° WSW 03:13:52 10° NNW
MSX 4.0 03:07:07 10° NNE 03:12:54 75° ESE 03:18:41 10° S
Cosmos 1943 3.2 03:07:39 10° NNW 03:13:18 88° ENE 03:18:56 10° SSE
Cosmos 1626 Rocket 3.7 03:10:06 10° NNW 03:14:18 51° W 03:18:28 10° S
Cosmos 1455 Rocket 4.1 03:11:32 15° SW 03:14:32 30° WNW 03:18:29 10° N
Cosmos 1758 4.1 03:13:24 14° SW 03:16:25 37° WNW 03:20:11 10° N
Resurs 1-4 Rocket 4.1 03:13:54 10° NNW 03:16:38 14° NW 03:19:22 10° W
Spot 4 Rocket 4.1 03:12:22 10° N 03:17:31 68° WNW 03:22:37 10° SSW
Meteor 1-21 Rocket 4.2 03:12:35 10° NNW 03:18:06 66° W 03:23:34 10° S
Cosmos 2227 Rocket 3.8 03:15:44 10° W 03:20:13 23° NW 03:24:44 10° N
SeaSat 1 2.9 03:16:48 10° NE 03:21:43 62° ESE 03:26:36 10° SSW
Landsat 5 3.3 03:20:50 10° S 03:24:41 65° WSW 03:28:42 10° NNW
CZ-2C R/B 2.7 03:21:47 10° N 03:25:41 72° WNW 03:29:28 10° SSW
CZ-2D R/B 3.9 03:23:21 10° N 03:27:14 44° WNW 03:31:02 10° SW
Cosmos 1461 3.8 03:23:26 12° WSW 03:27:20 43° NW 03:31:45 10° NNE
Cosmos 1048 Rocket 4.3 03:24:52 10° NNW 03:30:01 73° ENE 03:35:11 10° SSE
FALCON 9 DEB 3.5 03:27:13 10° WNW 03:30:31 41° SW 03:33:48 10° SE
Cosmos 2227 4.3 03:25:09 10° SSW 03:30:55 82° WNW 03:36:44 10° NNE
USA 215 3.7 03:24:59 10° NE 03:31:23 59° NNW 03:37:47 10° W
Cosmos 1758 Rocket 3.5 03:27:58 10° N 03:32:18 87° W 03:36:38 10° S
ATLAS 3B CENTAUR R/B 4.4 03:27:18 10° WSW 03:32:27 15° SSW 03:36:04 10° S
ATLAS CENTAUR R/B 3.5 03:29:32 10° SSE 03:32:43 21° ESE 03:35:45 10° ENE
Cosmos 1340 Rocket 4.1 03:29:56 11° SW 03:33:08 25° WNW 03:36:28 10° NNW
ERS-2 2.3 03:32:24 10° S 03:35:57 51° WSW 03:39:32 10° NNW
Cosmos 2228 3.6 03:32:57 10° S 03:37:15 63° E 03:41:37 10° NNE
SL-4 R/B 3.0 03:36:41 10° W 03:39:08 18° SW 03:41:34 10° S
Cosmos 1953 2.9 03:35:34 10° SW 03:39:20 40° WNW 03:43:11 10° N
Cosmos 1726 3.1 03:39:00 10° SW 03:42:18 30° WNW 03:45:36 10° N
Cosmos 1908 3.2 03:40:31 10° SSW 03:44:25 73° W 03:48:21 10° N
Meteor 1-16 Rocket 4.2 03:40:17 10° SSW 03:45:36 67° WNW 03:51:07 10° N
Cosmos 2285 Rocket 4.1 03:41:07 10° SSW 03:47:25 85° ESE 03:53:45 10° NNE
SL-16 R/B 3.9 03:47:27 10° WNW 03:49:37 12° W 03:51:46 10° WSW
H-2A R/B 2.7 03:46:45 10° SSW 03:50:26 32° W 03:54:09 10° NNW
Cosmos 2150 Rocket 4.0 03:47:03 10° SSW 03:52:13 88° WNW 03:57:29 10° NNE
